Park Rapids, MN

11:13 AM CST on February 20, 2017 (GMT -0600)
Park Rapids Municipal

Weather History for KPKD - May, 2013

Change the Weather History Date:

Thursday, May 30, 2013

  Actual Average Record
Temperature  
Mean Temperature 68 °F -  
Max Temperature 75 °F 72 °F 90 °F (1986)
Min Temperature 60 °F 46 °F 33 °F (2012)
Cooling Degree Days 2    
Growing Degree Days 18 (Base 50)    
Moisture  
Dew Point 61 °F    
Average Humidity 86    
Maximum Humidity 100    
Minimum Humidity 55    
Precipitation  
Precipitation 0.34 in - - ()
Sea Level Pressure  
Sea Level Pressure 29.54 in    
Wind  
Wind Speed 13 mph (SE)    
Max Wind Speed 22 mph    
Max Gust Speed 29 mph    
Visibility 9 miles    
Events Rain    
Averages and records for this station are not official NWS values.
T = Trace of Precipitation, MM = Missing Value Source: NWS Daily Summary

Daily Weather History Graph

Daily Weather History Graph

Search for Another Location

Airport or City:

Trip Planner

Search our weather history database for the weather conditions in past years. The results will help you decide how hot, cold, wet, or windy it might be!

Date:

Astronomy

May. 30, 2013 Rise Set
Actual Time 5:30 AM CDT 9:05 PM CDT
Civil Twilight 4:52 AM CDT 9:43 PM CDT
Nautical Twilight 4:01 AM CDT 10:35 PM CDT
Astronomical Twilight 2:53 AM CDT 11:44 PM CDT
Moon 12:53 AM CDT (5/30) 11:55 AM CDT (5/30)
Length of Visible Light 16h 51m
Length of Day
15h 35m
Waning Gibbous, 62% of the Moon is Illuminated
May 30
Waning Gibbous
May 31
Last Quarter
Jun 8
New
Jun 16
First Quarter
Jun 23
Full

Hourly Weather History & Observations

Time (CDT) Temp. Dew Point Humidity Pressure Visibility Wind Dir Wind Speed Gust Speed Precip Events Conditions
12:10 AM 60.8 °F 57.2 °F 88% 29.62 in 10.0 mi East 13.8 mph - N/A   Mostly Cloudy
12:53 AM 60.1 °F 57.9 °F 93% 29.63 in 10.0 mi East 12.7 mph 20.7 mph N/A   Scattered Clouds
1:11 AM 60.8 °F 57.2 °F 88% 29.63 in 10.0 mi East 13.8 mph - N/A   Mostly Cloudy
1:18 AM 60.8 °F 59.0 °F 94% 29.63 in 10.0 mi East 13.8 mph - N/A   Mostly Cloudy
1:48 AM 60.8 °F 59.0 °F 94% 29.62 in 9.0 mi East 11.5 mph - N/A   Overcast
1:53 AM 60.1 °F 59.0 °F 96% 29.62 in 9.0 mi ESE 11.5 mph - N/A   Overcast
2:53 AM 61.0 °F 61.0 °F 100% 29.59 in 2.5 mi ESE 13.8 mph 20.7 mph 0.09 in Rain Heavy Rain
3:10 AM 62.6 °F 60.8 °F 94% 29.58 in 8.0 mi East 11.5 mph - 0.05 in Rain Light Rain
3:25 AM 62.6 °F 60.8 °F 94% 29.56 in 9.0 mi East 13.8 mph - 0.05 in   Overcast
3:39 AM 62.6 °F 60.8 °F 94% 29.56 in 9.0 mi East 10.4 mph - 0.05 in   Overcast
3:46 AM 62.6 °F 60.8 °F 94% 29.57 in 10.0 mi ESE 10.4 mph - 0.05 in   Overcast
3:53 AM 62.1 °F 61.0 °F 96% 29.57 in 9.0 mi ESE 10.4 mph - 0.05 in Rain Light Rain
4:53 AM 63.0 °F 61.0 °F 93% 29.58 in 8.0 mi SE 13.8 mph - 0.01 in   Overcast
5:53 AM 62.1 °F 61.0 °F 96% 29.57 in 9.0 mi SE 11.5 mph - N/A   Overcast
6:53 AM 62.1 °F 61.0 °F 96% 29.57 in 9.0 mi ESE 9.2 mph - N/A   Overcast
7:53 AM 63.0 °F 61.0 °F 93% 29.55 in 10.0 mi East 10.4 mph - 0.00 in   Overcast
7:59 AM 62.6 °F 60.8 °F 94% 29.55 in 10.0 mi East 11.5 mph - N/A   Overcast
8:12 AM 62.6 °F 60.8 °F 94% 29.55 in 7.0 mi SE 8.1 mph 18.4 mph N/A   Overcast
8:53 AM 63.0 °F 62.1 °F 97% 29.55 in 9.0 mi ESE 10.4 mph - N/A   Overcast
9:53 AM 64.9 °F 63.0 °F 93% 29.52 in 10.0 mi ESE 6.9 mph - N/A   Overcast
10:16 AM 64.4 °F 62.6 °F 94% 29.52 in 1.8 mi ESE 8.1 mph - 0.02 in Rain Rain
10:32 AM 64.4 °F 62.6 °F 94% 29.53 in 3.0 mi SE 13.8 mph 25.3 mph 0.05 in Rain Light Rain
10:45 AM 66.2 °F 64.4 °F 94% 29.53 in 10.0 mi SSE 15.0 mph - 0.05 in   Overcast
10:53 AM 66.9 °F 64.0 °F 90% 29.52 in 10.0 mi SE 12.7 mph 24.2 mph 0.05 in   Overcast
11:00 AM 66.2 °F 64.4 °F 94% 29.52 in 10.0 mi SE 13.8 mph - N/A   Overcast
11:07 AM 69.8 °F 64.4 °F 83% 29.51 in 10.0 mi SE 15.0 mph - N/A   Overcast
11:53 AM 71.1 °F 63.0 °F 75% 29.51 in 10.0 mi SE 18.4 mph 28.8 mph N/A   Mostly Cloudy
12:23 PM 71.6 °F 62.6 °F 73% 29.51 in 10.0 mi SE 16.1 mph 25.3 mph N/A   Overcast
12:53 PM 72.0 °F 61.0 °F 68% 29.50 in 10.0 mi SSE 18.4 mph - N/A   Overcast
1:26 PM 73.4 °F 62.6 °F 69% 29.51 in 10.0 mi South 17.3 mph - N/A   Mostly Cloudy
1:53 PM 75.9 °F 60.1 °F 58% 29.50 in 10.0 mi SSE 21.9 mph 27.6 mph N/A   Scattered Clouds
2:53 PM 73.9 °F 59.0 °F 59% 29.50 in 10.0 mi SE 17.3 mph 23.0 mph N/A   Mostly Cloudy
3:53 PM 73.9 °F 60.1 °F 62% 29.49 in 10.0 mi SSE 18.4 mph 25.3 mph N/A   Mostly Cloudy
4:53 PM 75.0 °F 57.9 °F 55% 29.47 in 10.0 mi SE 18.4 mph 24.2 mph N/A   Mostly Cloudy
5:53 PM 75.0 °F 57.9 °F 55% 29.48 in 10.0 mi SE 16.1 mph - N/A   Partly Cloudy
6:53 PM 73.0 °F 57.0 °F 57% 29.49 in 10.0 mi SE 12.7 mph - N/A   Scattered Clouds
7:53 PM 70.0 °F 59.0 °F 68% 29.49 in 10.0 mi SE 12.7 mph - N/A   Overcast
8:53 PM 68.0 °F 60.1 °F 76% 29.50 in 10.0 mi ESE 6.9 mph - N/A   Overcast
9:53 PM 66.0 °F 61.0 °F 84% 29.49 in 10.0 mi SE 8.1 mph - 0.00 in Rain Light Rain
10:45 PM 62.6 °F 62.6 °F 100% 29.49 in 3.0 mi SE 6.9 mph - 0.08 in Rain Rain
10:53 PM 63.0 °F 62.1 °F 97% 29.48 in 2.5 mi ESE 3.5 mph - 0.12 in Rain Rain
11:01 PM 62.6 °F 62.6 °F 100% 29.48 in 3.0 mi SE 9.2 mph - 0.02 in Rain Light Rain
11:53 PM 62.1 °F 61.0 °F 96% 29.47 in 10.0 mi SE 8.1 mph - 0.02 in   Overcast